DMSP 5D-3 F17 (USA 191)

Last updated on Tue Jul 08 2025 00:02:21 GMT+0000 (Coordinated Universal Time)

1 29522U 06050A 25188.57578832 .00000028 00000+0 36767-4 0 9992 2 29522 98.7383 197.2134 0009412 326.0240 34.0330 14.14839214963682
UTC large
Height (km)
Speed (km/s)
/
Latitude / Longitude
Inclination (degrees)
Orbital Period (minutes)
Azimuth
Elevation
Range (km)
Doppler Factor

Next 0 passes for location: London (51.5072 / 0.1276)

Sorry there are no passes over London.